| time (UTC) | temp C | wind direction | speed KPH | gust KPH | rain 1hr cm | rain 24hr cm | rain mn cm | humidity % | barometer mb |
| 20260505184028 | 12 | 35 | 8.0 | 17.7 | 0.00 | 0.00 | 0.00 | 71 | 1007.0 |
| 20260505183528 | 12 | 49 | 6.4 | 20.9 | 0.00 | 0.00 | 0.00 | 74 | 1007.2 |
| 20260505183028 | 12 | 42 | 9.7 | 20.9 | 0.00 | 0.00 | 0.00 | 74 | 1007.4 |
| 20260505182528 | 12 | 33 | 6.4 | 16.1 | 0.00 | 0.00 | 0.00 | 74 | 1007.4 |
| 20260505182028 | 12 | 35 | 6.4 | 16.1 | 0.00 | 0.00 | 0.00 | 75 | 1007.2 |
| 20260505181528 | 12 | 49 | 6.4 | 14.5 | 0.00 | 0.00 | 0.00 | 76 | 1007.3 |
| 20260505181028 | 12 | 32 | 8.0 | 17.7 | 0.00 | 0.00 | 0.00 | 76 | 1007.3 |
| 20260505180527 | 12 | 39 | 8.0 | 17.7 | 0.00 | 0.00 | 0.00 | 75 | 1007.4 |
| 20260505180027 | 12 | 12 | 4.8 | 12.9 | 0.00 | 0.00 | 0.00 | 77 | 1007.3 |
| 20260505175528 | 12 | 57 | 8.0 | 22.5 | 0.00 | 0.00 | 0.00 | 77 | 1007.3 |
| 20260505175028 | 12 | 56 | 9.7 | 17.7 | 0.00 | 0.00 | 0.00 | 77 | 1007.3 |
| 20260505174528 | 12 | 51 | 9.7 | 16.1 | 0.00 | 0.00 | 0.00 | 77 | 1007.0 |
| 20260505174028 | 12 | 45 | 8.0 | 16.1 | 0.00 | 0.00 | 0.00 | 78 | 1006.8 |
| 20260505173527 | 12 | 41 | 6.4 | 14.5 | 0.00 | 0.00 | 0.00 | 78 | 1006.6 |
| 20260505173027 | 12 | 33 | 6.4 | 14.5 | 0.00 | 0.00 | 0.00 | 78 | 1006.6 |
| 20260505172528 | 12 | 47 | 8.0 | 16.1 | 0.00 | 0.00 | 0.00 | 79 | 1006.6 |
| 20260505172028 | 12 | 37 | 6.4 | 16.1 | 0.00 | 0.00 | 0.00 | 79 | 1006.6 |
| 20260505171528 | 12 | 38 | 8.0 | 17.7 | 0.00 | 0.00 | 0.00 | 79 | 1006.5 |
| 20260505171028 | 12 | 34 | 9.7 | 20.9 | 0.00 | 0.00 | 0.00 | 79 | 1006.4 |
| 20260505170527 | 12 | 48 | 6.4 | 17.7 | 0.00 | 0.00 | 0.00 | 80 | 1006.3 |
| 20260505170027 | 12 | 39 | 6.4 | 12.9 | 0.00 | 0.00 | 0.00 | 81 | 1006.4 |
| 20260505164528 | 12 | 52 | 11.3 | 22.5 | 0.00 | 0.00 | 0.00 | 81 | 1005.9 |
| 20260505164028 | 12 | 44 | 9.7 | 17.7 | 0.00 | 0.00 | 0.00 | 81 | 1005.7 |
| 20260505163527 | 12 | 60 | 9.7 | 20.9 | 0.00 | 0.00 | 0.00 | 81 | 1005.7 |
| 20260505163028 | 12 | 46 | 9.7 | 33.8 | 0.00 | 0.00 | 0.00 | 83 | 1005.6 |
| 20260505162528 | 12 | 45 | 9.7 | 20.9 | 0.00 | 0.00 | 0.00 | 83 | 1005.5 |
| 20260505162028 | 12 | 66 | 9.7 | 19.3 | 0.00 | 0.00 | 0.00 | 84 | 1005.5 |
| 20260505161528 | 12 | 42 | 8.0 | 16.1 | 0.00 | 0.00 | 0.00 | 84 | 1005.3 |
| 20260505161028 | 12 | 39 | 8.0 | 16.1 | 0.00 | 0.00 | 0.00 | 83 | 1005.3 |
| 20260505153028 | 14 | 44 | 8.0 | 14.5 | 0.00 | 0.00 | 0.00 | 80 | 1004.6 |
| 20260505152528 | 15 | 36 | 8.0 | 19.3 | 0.00 | 0.00 | 0.00 | 81 | 1004.6 |
| 20260505152028 | 15 | 46 | 8.0 | 19.3 | 0.00 | 0.00 | 0.00 | 80 | 1004.5 |
| 20260505151528 | 15 | 35 | 8.0 | 17.7 | 0.00 | 0.00 | 0.00 | 81 | 1004.5 |
| 20260505140528 | 18 | 46 | 6.4 | 11.3 | 0.00 | 0.00 | 0.00 | 80 | 1003.2 |
| 20260505125028 | 18 | 90 | 9.7 | 16.1 | 0.00 | 0.00 | 0.00 | 80 | 1002.3 |
| 20260505124527 | 18 | 104 | 9.7 | 17.7 | 0.00 | 0.00 | 0.00 | 80 | 1002.3 |
| 20260505124027 | 18 | 98 | 9.7 | 22.5 | 0.00 | 0.00 | 0.00 | 80 | 1002.4 |
| 20260505123527 | 18 | 85 | 11.3 | 19.3 | 0.00 | 0.00 | 0.00 | 80 | 1002.5 |
| 20260505123027 | 18 | 96 | 8.0 | 19.3 | 0.00 | 0.00 | 0.00 | 80 | 1002.6 |
| 20260505122527 | 18 | 99 | 11.3 | 22.5 | 0.00 | 0.00 | 0.00 | 80 | 1002.5 |
| 20260505122027 | 18 | 88 | 12.9 | 25.7 | 0.00 | 0.00 | 0.00 | 80 | 1002.4 |
| 20260505121527 | 18 | 96 | 12.9 | 17.7 | 0.00 | 0.00 | 0.00 | 80 | 1002.2 |
| 20260505121027 | 18 | 98 | 14.5 | 22.5 | 0.00 | 0.00 | 0.00 | 80 | 1002.1 |
| 20260505120527 | 18 | 93 | 12.9 | 22.5 | 0.00 | 0.00 | 0.00 | 80 | 1002.1 |
| 20260505120028 | 18 | 101 | 11.3 | 22.5 | 0.00 | 0.00 | 0.00 | 80 | 1002.1 |
| 20260505115528 | 18 | 92 | 11.3 | 20.9 | 0.00 | 0.00 | 0.00 | 80 | 1002.1 |
| 20260505115028 | 18 | 87 | 11.3 | 22.5 | 0.00 | 0.00 | 0.00 | 80 | 1002.2 |
| 20260505114528 | 18 | 82 | 11.3 | 25.7 | 0.00 | 0.00 | 0.00 | 79 | 1002.2 |
| 20260505114028 | 18 | 94 | 9.7 | 17.7 | 0.00 | 0.00 | 0.00 | 80 | 1002.1 |
| 20260505113528 | 18 | 84 | 11.3 | 24.1 | 0.00 | 0.00 | 0.00 | 80 | 1002.1 |
| 20260505113027 | 18 | 82 | 11.3 | 20.9 | 0.00 | 0.00 | 0.00 | 80 | 1002.1 |
| 20260505112527 | 18 | 88 | 11.3 | 17.7 | 0.00 | 0.00 | 0.00 | 80 | 1002.1 |
| 20260505111027 | 18 | 73 | 9.7 | 19.3 | 0.00 | 0.00 | 0.00 | 80 | 1001.9 |
| 20260505110527 | 18 | 82 | 9.7 | 16.1 | 0.00 | 0.00 | 0.00 | 80 | 1002.0 |
| 20260505102027 | 18 | 64 | 6.4 | 19.3 | 0.00 | 0.00 | 0.00 | 77 | 1001.4 |
| 20260505101527 | 18 | 68 | 8.0 | 12.9 | 0.00 | 0.00 | 0.00 | 77 | 1001.4 |
| 20260505101027 | 18 | 77 | 8.0 | 14.5 | 0.00 | 0.00 | 0.00 | 77 | 1001.3 |
| 20260505100527 | 18 | 63 | 8.0 | 16.1 | 0.00 | 0.00 | 0.00 | 76 | 1001.2 |
| 20260505100027 | 18 | 86 | 8.0 | 16.1 | 0.00 | 0.00 | 0.00 | 76 | 1001.0 |
| 20260505095527 | 18 | 74 | 9.7 | 19.3 | 0.00 | 0.00 | 0.00 | 76 | 1001.0 |
| 20260505095027 | 18 | 74 | 8.0 | 17.7 | 0.00 | 0.00 | 0.00 | 76 | 1000.9 |
| 20260505094527 | 18 | 77 | 8.0 | 19.3 | 0.00 | 0.00 | 0.00 | 76 | 1000.8 |
| 20260505094027 | 18 | 87 | 9.7 | 22.5 | 0.00 | 0.00 | 0.00 | 76 | 1000.8 |
| 20260505093028 | 18 | 88 | 9.7 | 20.9 | 0.00 | 0.00 | 0.00 | 75 | 1000.7 |
| 20260505092528 | 18 | 83 | 9.7 | 19.3 | 0.00 | 0.00 | 0.00 | 75 | 1000.7 |
| 20260505092028 | 18 | 91 | 9.7 | 16.1 | 0.00 | 0.00 | 0.00 | 75 | 1000.8 |
| 20260505091528 | 18 | 84 | 8.0 | 16.1 | 0.00 | 0.00 | 0.00 | 75 | 1000.8 |
| 20260505091029 | 18 | 94 | 9.7 | 22.5 | 0.00 | 0.00 | 0.00 | 75 | 1000.8 |
| 20260505090527 | 18 | 90 | 8.0 | 14.5 | 0.00 | 0.00 | 0.00 | 75 | 1000.9 |
| 20260505090028 | 18 | 95 | 9.7 | 17.7 | 0.00 | 0.00 | 0.00 | 75 | 1000.9 |
| 20260505085528 | 18 | 94 | 8.0 | 19.3 | 0.00 | 0.00 | 0.00 | 75 | 1000.9 |
| 20260505085027 | 18 | 94 | 8.0 | 16.1 | 0.00 | 0.00 | 0.00 | 75 | 1001.0 |
| 20260505084527 | 18 | 92 | 8.0 | 16.1 | 0.00 | 0.00 | 0.00 | 74 | 1001.0 |
| 20260505084028 | 18 | 92 | 8.0 | 16.1 | 0.00 | 0.00 | 0.00 | 74 | 1001.0 |
| 20260505083528 | 18 | 94 | 11.3 | 24.1 | 0.00 | 0.00 | 0.00 | 74 | 1001.0 |
| 20260505083028 | 18 | 87 | 9.7 | 17.7 | 0.00 | 0.00 | 0.00 | 74 | 1001.0 |
| 20260505082527 | 18 | 99 | 8.0 | 14.5 | 0.00 | 0.00 | 0.00 | 75 | 1001.1 |
| 20260505082028 | 18 | 84 | 8.0 | 14.5 | 0.00 | 0.00 | 0.00 | 74 | 1001.2 |
| 20260505081528 | 18 | 94 | 6.4 | 16.1 | 0.00 | 0.00 | 0.00 | 74 | 1001.3 |
| 20260505081028 | 18 | 82 | 8.0 | 14.5 | 0.00 | 0.00 | 0.00 | 74 | 1001.3 |
| 20260505080528 | 18 | 84 | 8.0 | 12.9 | 0.00 | 0.00 | 0.00 | 74 | 1001.3 |
| 20260505080027 | 18 | 77 | 8.0 | 14.5 | 0.00 | 0.00 | 0.00 | 74 | 1001.4 |
| 20260505075528 | 18 | 88 | 8.0 | 16.1 | 0.00 | 0.00 | 0.00 | 74 | 1001.4 |
| 20260505074027 | 19 | 88 | 9.7 | 17.7 | 0.00 | 0.00 | 0.00 | 73 | 1001.5 |
| 20260505073527 | 19 | 83 | 9.7 | 17.7 | 0.00 | 0.00 | 0.00 | 73 | 1001.5 |
| 20260505073027 | 19 | 91 | 9.7 | 14.5 | 0.00 | 0.00 | 0.00 | 73 | 1001.7 |
| 20260505072528 | 19 | 93 | 8.0 | 14.5 | 0.00 | 0.00 | 0.00 | 73 | 1001.9 |
| 20260505072027 | 20 | 86 | 6.4 | 11.3 | 0.00 | 0.00 | 0.00 | 72 | 1001.9 |
| 20260505071527 | 20 | 87 | 8.0 | 14.5 | 0.00 | 0.00 | 0.00 | 73 | 1002.1 |
| 20260505071028 | 20 | 75 | 8.0 | 16.1 | 0.00 | 0.00 | 0.00 | 72 | 1002.1 |
| 20260505070528 | 20 | 76 | 6.4 | 12.9 | 0.00 | 0.00 | 0.00 | 72 | 1002.1 |
| 20260505070027 | 20 | 87 | 6.4 | 11.3 | 0.00 | 0.00 | 0.00 | 73 | 1002.1 |
| 20260505065527 | 20 | 78 | 6.4 | 9.7 | 0.00 | 0.00 | 0.00 | 73 | 1002.2 |
| 20260505065028 | 20 | 81 | 8.0 | 12.9 | 0.00 | 0.00 | 0.00 | 73 | 1002.2 |
| 20260505064027 | 20 | 73 | 6.4 | 8.0 | 0.00 | 0.00 | 0.00 | 74 | 1002.4 |
| 20260505063527 | 20 | 77 | 4.8 | 9.7 | 0.00 | 0.00 | 0.00 | 74 | 1002.4 |
| 20260505063027 | 20 | 76 | 4.8 | 8.0 | 0.00 | 0.00 | 0.00 | 74 | 1002.4 |
| 20260505062527 | 19 | 63 | 4.8 | 8.0 | 0.00 | 0.00 | 0.00 | 75 | 1002.3 |
| 20260505062027 | 19 | 72 | 4.8 | 9.7 | 0.00 | 0.00 | 0.00 | 76 | 1002.4 |
| 20260505061527 | 19 | 81 | 3.2 | 8.0 | 0.00 | 0.00 | 0.00 | 75 | 1002.6 |
| 20260505061028 | 20 | 48 | 1.6 | 4.8 | 0.00 | 0.00 | 0.00 | 74 | 1002.6 |
| 20260505060528 | 20 | 25 | 1.6 | 4.8 | 0.00 | 0.00 | 0.00 | 74 | 1002.5 |
| 20260505060027 | 20 | 49 | 1.6 | 4.8 | 0.00 | 0.00 | 0.00 | 73 | 1002.3 |
| 20260505055527 | 20 | 148 | 0.0 | 3.2 | 0.00 | 0.00 | 0.00 | 71 | 1002.2 |
| 20260505055027 | 20 | 354 | 0.0 | 3.2 | 0.00 | 0.00 | 0.00 | 70 | 1002.2 |
| 20260505054527 | 20 | 72 | 1.6 | 8.0 | 0.00 | 0.00 | 0.00 | 71 | 1002.1 |
| 20260505054027 | 20 | 35 | 4.8 | 8.0 | 0.00 | 0.00 | 0.00 | 69 | 1002.1 |
| 20260505053527 | 20 | 47 | 3.2 | 8.0 | 0.00 | 0.00 | 0.00 | 69 | 1001.9 |
| 20260505053027 | 20 | 127 | 4.8 | 11.3 | 0.00 | 0.00 | 0.00 | 69 | 1001.7 |
| 20260505052527 | 20 | 156 | 4.8 | 11.3 | 0.00 | 0.00 | 0.00 | 69 | 1001.6 |
| 20260505052028 | 20 | 170 | 4.8 | 14.5 | 0.00 | 0.00 | 0.00 | 69 | 1001.5 |
| 20260505051528 | 20 | 162 | 6.4 | 11.3 | 0.00 | 0.00 | 0.00 | 69 | 1001.7 |
| 20260505051028 | 20 | 169 | 6.4 | 12.9 | 0.00 | 0.00 | 0.00 | 68 | 1001.7 |
| 20260505050528 | 20 | 163 | 4.8 | 11.3 | 0.00 | 0.00 | 0.00 | 68 | 1001.6 |
| 20260505041527 | 20 | 139 | 4.8 | 20.9 | 0.00 | 0.00 | 0.00 | 66 | 1001.3 |
| 20260505041028 | 20 | 146 | 4.8 | 12.9 | 0.00 | 0.00 | 0.00 | 66 | 1001.4 |
| 20260505040528 | 20 | 138 | 4.8 | 14.5 | 0.00 | 0.00 | 0.00 | 66 | 1001.5 |
| 20260505040027 | 20 | 134 | 3.2 | 11.3 | 0.00 | 0.00 | 0.00 | 65 | 1001.6 |
| 20260505035527 | 20 | 155 | 6.4 | 11.3 | 0.00 | 0.00 | 0.00 | 65 | 1001.6 |
| 20260505034028 | 20 | 159 | 4.8 | 11.3 | 0.00 | 0.00 | 0.00 | 64 | 1001.8 |
| 20260505033528 | 20 | 142 | 8.0 | 14.5 | 0.00 | 0.00 | 0.00 | 64 | 1001.7 |
| 20260505032027 | 21 | 130 | 4.8 | 9.7 | 0.00 | 0.00 | 0.00 | 63 | 1002.3 |
| 20260505031527 | 21 | 122 | 6.4 | 11.3 | 0.00 | 0.00 | 0.00 | 63 | 1002.4 |
| 20260505031027 | 21 | 121 | 4.8 | 9.7 | 0.00 | 0.00 | 0.00 | 63 | 1002.5 |
| 20260505030527 | 21 | 113 | 4.8 | 11.3 | 0.00 | 0.00 | 0.00 | 63 | 1002.4 |
| 20260505025027 | 21 | 119 | 4.8 | 9.7 | 0.00 | 0.00 | 0.00 | 64 | 1002.5 |
| 20260505024527 | 21 | 116 | 6.4 | 11.3 | 0.00 | 0.00 | 0.00 | 63 | 1002.3 |
| 20260505024028 | 21 | 120 | 6.4 | 11.3 | 0.00 | 0.00 | 0.00 | 63 | 1002.4 |
| 20260505023528 | 21 | 108 | 6.4 | 12.9 | 0.00 | 0.00 | 0.00 | 63 | 1002.4 |
| 20260505023027 | 21 | 115 | 4.8 | 11.3 | 0.00 | 0.00 | 0.00 | 63 | 1002.6 |
| 20260505022527 | 21 | 127 | 4.8 | 9.7 | 0.00 | 0.00 | 0.00 | 63 | 1002.7 |
| 20260505022028 | 21 | 111 | 4.8 | 11.3 | 0.00 | 0.00 | 0.00 | 62 | 1002.6 |
| 20260505021528 | 21 | 105 | 4.8 | 11.3 | 0.00 | 0.00 | 0.00 | 62 | 1002.6 |
| 20260505021027 | 21 | 112 | 3.2 | 9.7 | 0.00 | 0.00 | 0.00 | 62 | 1002.7 |
| 20260505020527 | 21 | 117 | 4.8 | 6.4 | 0.00 | 0.00 | 0.00 | 61 | 1002.6 |
| 20260505020028 | 21 | 132 | 4.8 | 9.7 | 0.00 | 0.00 | 0.00 | 61 | 1002.6 |
| 20260505015528 | 21 | 124 | 4.8 | 11.3 | 0.00 | 0.00 | 0.00 | 60 | 1002.5 |
| 20260505015027 | 21 | 133 | 4.8 | 16.1 | 0.00 | 0.00 | 0.00 | 60 | 1002.5 |
| 20260505014527 | 22 | 129 | 3.2 | 8.0 | 0.00 | 0.00 | 0.00 | 60 | 1002.5 |
| 20260505014028 | 22 | 150 | 3.2 | 4.8 | 0.00 | 0.00 | 0.00 | 60 | 1002.4 |
| 20260505013528 | 22 | 127 | 3.2 | 9.7 | 0.00 | 0.00 | 0.00 | 60 | 1002.4 |
| 20260505011527 | 22 | 141 | 3.2 | 11.3 | 0.00 | 0.00 | 0.00 | 60 | 1002.4 |
| 20260505011027 | 22 | 136 | 3.2 | 9.7 | 0.00 | 0.00 | 0.00 | 60 | 1002.5 |
| 20260505010527 | 22 | 148 | 3.2 | 6.4 | 0.00 | 0.00 | 0.00 | 60 | 1002.4 |
| 20260505010027 | 22 | 141 | 3.2 | 8.0 | 0.00 | 0.00 | 0.00 | 60 | 1002.4 |
| 20260505005527 | 23 | 133 | 3.2 | 9.7 | 0.00 | 0.00 | 0.00 | 59 | 1002.4 |
| 20260505005027 | 23 | 154 | 3.2 | 9.7 | 0.00 | 0.00 | 0.00 | 58 | 1002.4 |
| 20260505004527 | 23 | 153 | 4.8 | 11.3 | 0.00 | 0.00 | 0.00 | 58 | 1002.4 |
| 20260505004027 | 23 | 151 | 4.8 | 8.0 | 0.00 | 0.00 | 0.00 | 58 | 1002.4 |
| 20260505003527 | 23 | 136 | 3.2 | 8.0 | 0.00 | 0.00 | 0.00 | 58 | 1002.4 |
| 20260505003028 | 23 | 154 | 3.2 | 8.0 | 0.00 | 0.00 | 0.00 | 58 | 1002.4 |
| 20260505002527 | 23 | 159 | 4.8 | 9.7 | 0.00 | 0.00 | 0.00 | 57 | 1002.5 |
| 20260505002027 | 23 | 186 | 8.0 | 17.7 | 0.00 | 0.00 | 0.00 | 57 | 1002.5 |
| 20260505001527 | 23 | 147 | 3.2 | 9.7 | 0.00 | 0.00 | 0.00 | 57 | 1002.6 |
| 20260505001027 | 23 | 159 | 6.4 | 12.9 | 0.00 | 0.00 | 0.00 | 57 | 1002.6 |
| 20260504234528 | 24 | 178 | 4.8 | 9.7 | 0.00 | 0.00 | 0.00 | 56 | 1002.9 |
| 20260504234027 | 24 | 154 | 6.4 | 12.9 | 0.00 | 0.00 | 0.00 | 56 | 1002.9 |
| 20260504233527 | 24 | 171 | 6.4 | 19.3 | 0.00 | 0.00 | 0.00 | 56 | 1003.0 |
| 20260504233027 | 24 | 183 | 4.8 | 12.9 | 0.00 | 0.00 | 0.00 | 56 | 1003.1 |
| 20260504232527 | 24 | 175 | 6.4 | 12.9 | 0.00 | 0.00 | 0.00 | 56 | 1003.2 |
| 20260504232027 | 24 | 168 | 6.4 | 14.5 | 0.00 | 0.00 | 0.00 | 55 | 1003.2 |
| 20260504231527 | 24 | 171 | 6.4 | 12.9 | 0.00 | 0.00 | 0.00 | 56 | 1003.2 |
| 20260504231027 | 24 | 187 | 8.0 | 14.5 | 0.00 | 0.00 | 0.00 | 57 | 1003.2 |
| 20260504230527 | 24 | 185 | 6.4 | 16.1 | 0.00 | 0.00 | 0.00 | 56 | 1003.2 |
| 20260504230027 | 25 | 175 | 9.7 | 17.7 | 0.00 | 0.00 | 0.00 | 56 | 1003.1 |
| 20260504225528 | 25 | 172 | 6.4 | 12.9 | 0.00 | 0.00 | 0.00 | 56 | 1003.1 |
| 20260504225028 | 25 | 169 | 4.8 | 16.1 | 0.00 | 0.00 | 0.00 | 56 | 1003.1 |
| 20260504224528 | 25 | 183 | 9.7 | 17.7 | 0.00 | 0.00 | 0.00 | 55 | 1003.1 |
| 20260504224028 | 25 | 172 | 4.8 | 14.5 | 0.00 | 0.00 | 0.00 | 56 | 1003.0 |
| 20260504223528 | 25 | 177 | 8.0 | 19.3 | 0.00 | 0.00 | 0.00 | 55 | 1003.0 |
| 20260504223028 | 25 | 179 | 9.7 | 19.3 | 0.00 | 0.00 | 0.00 | 54 | 1003.0 |
| 20260504222527 | 25 | 178 | 6.4 | 16.1 | 0.00 | 0.00 | 0.00 | 55 | 1003.0 |
| 20260504222027 | 25 | 192 | 6.4 | 19.3 | 0.00 | 0.00 | 0.00 | 55 | 1002.9 |
| 20260504221527 | 25 | 186 | 8.0 | 22.5 | 0.00 | 0.00 | 0.00 | 55 | 1002.9 |
| 20260504221027 | 25 | 172 | 6.4 | 11.3 | 0.00 | 0.00 | 0.00 | 54 | 1002.9 |
| 20260504220527 | 25 | 179 | 6.4 | 11.3 | 0.00 | 0.00 | 0.00 | 55 | 1002.9 |
| 20260504220027 | 25 | 185 | 11.3 | 22.5 | 0.00 | 0.00 | 0.00 | 53 | 1002.9 |
| 20260504215527 | 25 | 184 | 8.0 | 19.3 | 0.00 | 0.00 | 0.00 | 54 | 1002.9 |
| 20260504215027 | 25 | 188 | 9.7 | 19.3 | 0.00 | 0.00 | 0.00 | 54 | 1003.0 |
| 20260504214527 | 25 | 191 | 9.7 | 17.7 | 0.00 | 0.00 | 0.00 | 53 | 1003.0 |
| 20260504214027 | 25 | 184 | 11.3 | 30.6 | 0.00 | 0.00 | 0.00 | 53 | 1003.1 |
| 20260504213527 | 25 | 186 | 9.7 | 20.9 | 0.00 | 0.00 | 0.00 | 53 | 1003.1 |
| 20260504213027 | 25 | 186 | 8.0 | 20.9 | 0.00 | 0.00 | 0.00 | 53 | 1003.2 |
| 20260504212527 | 25 | 178 | 6.4 | 16.1 | 0.00 | 0.00 | 0.00 | 53 | 1003.2 |
| 20260504212027 | 25 | 180 | 11.3 | 16.1 | 0.00 | 0.00 | 0.00 | 52 | 1003.3 |
| 20260504211528 | 25 | 181 | 8.0 | 14.5 | 0.00 | 0.00 | 0.00 | 53 | 1003.4 |
| 20260504211028 | 25 | 174 | 8.0 | 17.7 | 0.00 | 0.00 | 0.00 | 52 | 1003.5 |
| 20260504210528 | 25 | 187 | 8.0 | 20.9 | 0.00 | 0.00 | 0.00 | 52 | 1003.5 |
| 20260504210028 | 25 | 176 | 8.0 | 14.5 | 0.00 | 0.00 | 0.00 | 51 | 1003.5 |
| 20260504205528 | 26 | 157 | 8.0 | 16.1 | 0.00 | 0.00 | 0.00 | 52 | 1003.5 |
| 20260504205027 | 26 | 188 | 12.9 | 25.7 | 0.00 | 0.00 | 0.00 | 50 | 1003.6 |
| 20260504204527 | 26 | 174 | 6.4 | 14.5 | 0.00 | 0.00 | 0.00 | 51 | 1003.7 |
| 20260504204027 | 26 | 176 | 9.7 | 24.1 | 0.00 | 0.00 | 0.00 | 51 | 1003.8 |
| 20260504203527 | 26 | 182 | 9.7 | 24.1 | 0.00 | 0.00 | 0.00 | 50 | 1003.7 |
| 20260504203027 | 26 | 188 | 12.9 | 24.1 | 0.00 | 0.00 | 0.00 | 50 | 1003.8 |
| 20260504201527 | 26 | 200 | 14.5 | 30.6 | 0.00 | 0.00 | 0.00 | 49 | 1004.0 |
| 20260504201027 | 26 | 188 | 12.9 | 25.7 | 0.00 | 0.00 | 0.00 | 48 | 1004.1 |
| 20260504200528 | 26 | 190 | 11.3 | 25.7 | 0.00 | 0.00 | 0.00 | 48 | 1004.1 |
| 20260504200028 | 26 | 181 | 11.3 | 20.9 | 0.00 | 0.00 | 0.00 | 49 | 1004.3 |
| 20260504195527 | 26 | 209 | 12.9 | 24.1 | 0.00 | 0.00 | 0.00 | 48 | 1004.3 |
| 20260504195027 | 26 | 201 | 11.3 | 20.9 | 0.00 | 0.00 | 0.00 | 48 | 1004.3 |
| 20260504194528 | 26 | 197 | 11.3 | 29.0 | 0.00 | 0.00 | 0.00 | 48 | 1004.4 |
| 20260504194028 | 26 | 185 | 12.9 | 25.7 | 0.00 | 0.00 | 0.00 | 46 | 1004.4 |
| 20260504193528 | 26 | 188 | 9.7 | 19.3 | 0.00 | 0.00 | 0.00 | 47 | 1004.5 |
| 20260504193028 | 26 | 191 | 11.3 | 27.4 | 0.00 | 0.00 | 0.00 | 47 | 1004.5 |
| 20260504192527 | 26 | 191 | 14.5 | 30.6 | 0.00 | 0.00 | 0.00 | 46 | 1004.6 |
| 20260504192033 | 26 | 205 | 11.3 | 25.7 | 0.00 | 0.00 | 0.00 | 45 | 1004.7 |
| 20260504191527 | 26 | 192 | 11.3 | 27.4 | 0.00 | 0.00 | 0.00 | 45 | 1004.8 |
| 20260504191027 | 26 | 194 | 9.7 | 22.5 | 0.00 | 0.00 | 0.00 | 46 | 1004.9 |
| 20260504190527 | 26 | 186 | 11.3 | 24.1 | 0.00 | 0.00 | 0.00 | 46 | 1004.9 |
| 20260504190027 | 26 | 186 | 12.9 | 32.2 | 0.00 | 0.00 | 0.00 | 46 | 1004.9 |
| 20260504185528 | 26 | 192 | 12.9 | 25.7 | 0.00 | 0.00 | 0.00 | 45 | 1004.9 |
| 20260504185028 | 26 | 192 | 16.1 | 27.4 | 0.00 | 0.00 | 0.00 | 45 | 1004.9 |
| 20260504184527 | 26 | 195 | 14.5 | 29.0 | 0.00 | 0.00 | 0.00 | 45 | 1004.9 |